Terminal Aerodrome Forecast
Issued by NWS

Home | Current Version | Previous Version | Text Only | Print | Product List | Glossary On
Versions: 1 2 3 4 5 6 7 8 9 10 11 12 13 14 15
000
FTUS43 KPAH 251720
TAFCGI
TAF
KCGI 251720Z 2518/2618 VRB04KT P6SM SCT100 OVC250
     FM252300 VRB03KT P6SM SCT050 OVC100
     FM260500 01004KT P6SM SCT025 OVC050
     FM261500 01010KT P6SM OVC025 PROB30 2616/2618 5SM -SHSN=

USA.gov is the U.S. government's official web portal to all federal, state and local government web resources and services.